STARLINK-35911, 68051

Orbit data source: Space-Track

STARLINK-35911, 68051 is a payload satellite owned by SpaceX/Seattle (US) in LEO that was launched on Mon, 02 Mar 2026 UTC via an FALCON 9 launch vehicle from the Air Force Eastern Test Range (AFETR). Payload-class satellites include a variety of spacecraft equipped with specific instruments for various scientific and technological missions. These include communications satellites like Starlink; space stations such as the ISS; scientific satellites like the Hubble; Earth observation satellites from companies like Planet Labs, Umbra, and HawkEye 360; GPS; miniature CubeSats for education and research; and military/defense satellites.

Loading next visibility...
Identifier
68051, 2026-041M
Orbit
LEO
Country
Flag of USUS
Related business
Manufacturer
SpaceX/Seattle
Mission
Operational Commercial Communications
Bus & Motor
STARLINK V2MO, Unknown motor
Mass
575 kg wet, ~530 kg dry
Launch date (UTC)
2026-03-02 (4 months ago)
Launch vehicle
FALCON 9
Launch site
Air Force Eastern Test Range (AFETR)
Object type
Payload
Rocket body
Debris
Shape & HBR
Box + 2 Pan, 17.7 m
Radar Cross Section
36.964 m², Large (>1 m²)

Expand to show TLE details & history
Last TLE update: 1 day ago

TLE from 1 day ago
0 STARLINK-35911
1 68051U 26041M   26170.63799717  .00018129  00000-0  54626-3 0  9995
2 68051  53.1610 295.8665 0001504 106.2885 253.8284 15.34407355 17006
Epoch: 2026-06-19T15:18Z
TLE epoch observation values (Epoch: 2026-06-19T15:18:42.955Z)
Latitude
0.00005°
Longitude
158.32345°
Altitude
463.87 km
Speed
7.636 km/s
True Right ascension
19h 43m 27s
True Declination
0° 00' 00"
Sunlit
Object was in full shadow at epoch
Visualization orbit readout
Latitude
Unknown
Longitude
Unknown
Altitude
Unknown
Speed
Unknown
Apparent Right ascension
Unknown
Apparent Declination
Unknown
Sunlit
N/A
Visualization observer readout
Local Sidereal Time
07:22:56
Azimuth
Unknown
Elevation
Unknown
Doppler factor
Unknown
Orbital elements
Apogee altitude
463.967 km
Perigee altitude
461.909 km
Semi-major axis
6,841.075 km
Eccentricity
0.00015
Inclination
53.161°
RAAN
295.8665°
Arg. of periapsis
106.2885°
True anomaly
253.81185°
Mean anomaly
253.8284°
Eccentric anomaly
253.82012°
Mean motion
3.83581 °/min
Orbital period
93.85 mins
BSTAR
0.00054626
Loading maneuver chart data...
Computing Atmospheric mass density...
Loading historical data...
Loading historical data...
Loading historical data...
Loading historical data...
Loading historical data...
Loading historical data...
Loading historical data...

Documentation

Showing up to 5 results
|